Date String (YYYY-MM-DD hh:mm:ss) UTC,Instrument flags,Ambient pressure (hPa),Sample flow (lpm),Bypass flow (lpm),Sample temperature (°C),Ambient temperature (°C),ASC tube jacket temperature (°C),LED temperature (°C),Box temperature (°C),Sample RH (%),Span deviation,Mass concentration (μg/m³),Mass concentration (μg/m³),Mass concentration (μg/m³)
DateTimeUTC,F1_M11,P_M11,Q1_M11,Q2_M11,T1_M11,T2_M11,T3_M11,T4_M11,T5_M11,U1_M11,ZSPAN_M11,X2_M11,X0_M11,X1_M11
2021-10-02 22:00:00,,0831.1,5.00,0.00,29.5,27.4,00.0,38.6,31.2,11.9,0000.0,0004.22,0008.57,0003.77
2021-10-02 22:01:00,,0831.1,5.00,0.00,29.5,27.8,00.0,38.6,31.3,12.2,0000.0,0004.21,0008.57,0003.75
2021-10-02 22:02:00,,0831.1,5.00,0.00,29.5,28.1,00.0,38.6,31.3,11.8,0000.0,0004.20,0008.88,0003.74
2021-10-02 22:03:00,,0831.1,5.01,0.00,29.6,28.3,00.0,38.6,31.4,11.9,0000.0,0004.20,0009.35,0003.73
2021-10-02 22:04:00,,0831.1,5.00,0.00,29.6,28.5,00.0,38.6,31.5,12.0,0000.0,0004.21,0009.52,0003.73
2021-10-02 22:05:00,,0831.1,4.99,0.00,29.6,28.7,00.0,38.6,31.5,12.0,0000.0,0004.20,0009.91,0003.73
2021-10-02 22:06:00,,0831.1,5.01,0.00,29.7,28.8,00.0,38.6,31.6,11.7,0000.0,0004.18,0010.09,0003.73
2021-10-02 22:07:00,,0831.1,4.99,0.00,29.7,28.9,00.0,38.7,31.7,11.7,0000.0,0004.20,0010.35,0003.73
2021-10-02 22:08:00,,0831.1,5.00,0.00,29.8,28.9,00.0,38.7,31.7,11.7,0000.5,0004.22,0010.38,0003.72
2021-10-02 22:09:00,,0831.0,4.99,0.00,29.8,29.0,00.0,38.7,31.8,11.7,0000.0,0004.26,0010.03,0003.72
2021-10-02 22:10:00,,0831.0,5.00,0.00,29.9,29.1,00.0,38.7,31.8,11.7,0000.0,0004.25,0010.02,0003.73
2021-10-02 22:11:00,,0831.1,5.00,0.00,29.9,29.1,00.0,38.8,31.8,11.8,0000.0,0004.26,0010.01,0003.73
2021-10-02 22:12:00,,0831.1,5.00,0.00,29.9,27.4,00.0,38.8,31.4,11.8,0000.0,0004.28,0009.97,0003.74
2021-10-02 22:13:00,,0831.1,5.01,0.00,29.7,26.5,00.0,38.8,31.1,11.7,0000.0,0004.26,0009.35,0003.75
2021-10-02 22:14:00,,0831.1,5.00,0.00,29.6,26.7,00.0,38.8,31.1,11.6,0000.0,0004.26,0008.91,0003.75
2021-10-02 22:15:00,,0831.0,4.99,0.00,29.6,27.1,00.0,38.7,31.2,11.7,0000.0,0004.29,0008.92,0003.76
2021-10-02 22:16:00,,0831.0,5.00,0.00,29.6,27.5,00.0,38.7,31.3,11.8,0000.3,0004.32,0008.62,0003.76
2021-10-02 22:17:00,,0831.0,5.00,0.00,29.6,27.8,00.0,38.7,31.4,11.8,0003.0,0004.38,0008.92,0003.77
2021-10-02 22:18:00,,0831.0,4.99,0.00,29.7,28.1,00.0,38.7,31.4,12.0,0001.8,0004.42,0008.88,0003.77
2021-10-02 22:19:00,,0831.0,5.01,0.00,29.7,28.4,00.0,38.7,31.5,12.2,0000.5,0004.40,0008.85,0003.76
2021-10-02 22:20:00,,0831.0,4.99,0.00,29.7,28.6,00.0,38.7,31.6,12.0,0000.0,0004.37,0009.20,0003.75
2021-10-02 22:21:00,,0831.0,4.99,0.00,29.8,28.8,00.0,38.7,31.6,12.1,0000.0,0004.36,0009.12,0003.75
2021-10-02 22:22:00,,0831.1,5.00,0.00,29.8,28.9,00.0,38.7,31.7,12.2,0000.6,0004.38,0009.11,0003.74
2021-10-02 22:23:00,,0831.1,4.99,0.00,29.9,29.0,00.0,38.8,31.8,12.8,0001.0,0004.36,0009.05,0003.73
2021-10-02 22:24:00,,0831.1,5.02,0.00,29.9,29.1,00.0,38.8,31.8,12.5,0001.6,0004.36,0009.28,0003.73
2021-10-02 22:25:00,,0831.1,5.00,0.00,29.9,29.0,00.0,38.8,31.8,11.8,0002.7,0004.34,0009.46,0003.73
2021-10-02 22:26:00,,0831.1,5.00,0.00,29.8,27.1,00.0,38.8,31.2,11.4,0003.2,0004.32,0009.82,0003.73
2021-10-02 22:27:00,,0831.0,5.00,0.00,29.6,25.6,00.0,38.8,30.8,11.5,0001.0,0004.31,0009.79,0003.73
2021-10-02 22:28:00,,0831.0,5.01,0.00,29.5,25.7,00.0,38.7,30.8,11.8,0000.0,0004.26,0009.52,0003.72
2021-10-02 22:29:00,,0831.0,4.99,0.00,29.4,26.2,00.0,38.7,30.9,12.2,0000.4,0004.24,0009.45,0003.72
2021-10-02 22:30:00,,0831.0,5.01,0.00,29.4,26.7,00.0,38.6,31.0,12.4,0000.7,0004.21,0009.61,0003.73
2021-10-02 22:31:00,,0831.0,4.99,0.00,29.4,27.2,00.0,38.6,31.1,13.1,0002.7,0004.21,0009.22,0003.73
2021-10-02 22:32:00,,0831.0,5.01,0.00,29.5,27.5,00.0,38.6,31.2,12.5,0003.0,0004.19,0009.00,0003.73
2021-10-02 22:33:00,,0831.0,4.99,0.00,29.5,27.9,00.0,38.6,31.3,12.0,0002.3,0004.15,0009.01,0003.72
2021-10-02 22:34:00,,0831.1,5.00,0.00,29.5,28.1,00.0,38.6,31.3,12.2,0000.0,0004.17,0009.04,0003.72
2021-10-02 22:35:00,,0831.1,5.02,0.00,29.6,28.3,00.0,38.6,31.4,12.2,0000.0,0004.19,0009.12,0003.72
2021-10-02 22:36:00,,0831.1,4.98,0.00,29.6,28.5,00.0,38.6,31.5,12.2,0000.0,0004.23,0009.57,0003.72
2021-10-02 22:37:00,,0831.1,4.99,0.00,29.6,28.7,00.0,38.6,31.5,12.6,0000.0,0004.23,0009.74,0003.72
2021-10-02 22:38:00,,0831.2,5.00,0.00,29.7,28.8,00.0,38.6,31.6,12.3,0000.0,0004.23,0010.11,0003.72
2021-10-02 22:39:00,,0831.1,5.00,0.00,29.7,28.9,00.0,38.7,31.6,12.1,0001.4,0004.22,0010.34,0003.72
2021-10-02 22:40:00,,0831.1,4.99,0.00,29.8,29.0,00.0,38.7,31.7,12.2,0001.4,0004.19,0010.81,0003.72
2021-10-02 22:41:00,,0831.1,5.00,0.00,29.8,29.1,00.0,38.7,31.7,12.4,0000.0,0004.22,0011.09,0003.72
2021-10-02 22:42:00,,0831.1,5.02,0.00,29.9,29.2,00.0,38.7,31.7,12.4,0000.0,0004.23,0011.62,0003.73
2021-10-02 22:43:00,,0831.1,5.00,0.00,29.9,29.1,00.0,38.8,31.8,12.2,0000.0,0004.30,0012.11,0003.74
2021-10-02 22:44:00,,0831.1,5.01,0.00,29.8,27.5,00.0,38.8,31.3,11.9,0000.0,0004.34,0012.11,0003.76
2021-10-02 22:45:00,,0831.1,4.99,0.00,29.6,25.7,00.0,38.7,30.8,12.2,0000.0,0004.32,0012.08,0003.75
2021-10-02 22:46:00,,0831.0,5.00,0.00,29.5,25.7,00.0,38.7,30.8,12.7,0000.0,0004.30,0011.79,0003.74
2021-10-02 22:47:00,,0831.0,5.00,0.00,29.4,26.2,00.0,38.7,30.9,12.6,0000.0,0004.30,0011.30,0003.73
2021-10-02 22:48:00,,0831.1,5.00,0.00,29.4,26.7,00.0,38.6,31.0,13.0,0000.0,0004.29,0010.66,0003.74
2021-10-02 22:49:00,,0831.1,5.01,0.00,29.4,27.1,00.0,38.6,31.1,12.8,0000.0,0004.29,0010.22,0003.72
2021-10-02 22:50:00,,0831.1,4.99,0.00,29.4,27.5,00.0,38.6,31.2,12.4,0000.0,0004.30,0009.98,0003.72
2021-10-02 22:51:00,,0831.1,5.01,0.00,29.5,27.8,00.0,38.5,31.2,12.0,0000.0,0004.31,0009.37,0003.72
2021-10-02 22:52:00,,0831.0,4.99,0.00,29.5,28.1,00.0,38.5,31.3,11.6,0000.0,0004.31,0009.20,0003.71
2021-10-02 22:53:00,,0831.0,5.01,0.00,29.5,28.3,00.0,38.6,31.4,11.5,0000.0,0004.32,0008.76,0003.71
2021-10-02 22:54:00,,0831.0,4.99,0.00,29.6,28.5,00.0,38.6,31.4,11.5,0000.0,0004.29,0009.27,0003.71
2021-10-02 22:55:00,,0831.0,5.01,0.00,29.6,28.6,00.0,38.6,31.5,11.6,0000.0,0004.27,0009.69,0003.70
2021-10-02 22:56:00,,0831.0,4.99,0.00,29.7,28.8,00.0,38.6,31.5,11.7,0000.0,0004.25,0009.70,0003.71
2021-10-02 22:57:00,,0831.0,5.00,0.00,29.7,28.9,00.0,38.6,31.6,11.6,0000.0,0004.25,0009.75,0003.71
2021-10-02 22:58:00,,0831.0,4.99,0.00,29.7,29.0,00.0,38.6,31.6,11.5,0000.0,0004.26,0010.14,0003.72
2021-10-02 22:59:00,,0831.0,5.01,0.00,29.8,29.1,00.0,38.7,31.7,11.3,0000.0,0004.28,0010.29,0003.72
